GFSWCAN_sfc_thetae_111.txt.gz
Theta_e
311 312 313 313 313 314 314 314 315 315 315 316 315 314 315 316 316 308 308 310 305 300 300 305 305 300 299 295 292 294 295 296 293 289 289 288 286 289 286 289 288 286 283 282 282 282 283 302 303 296 300 301 309 312
312 312 313 313 313 314 314 314 314 314 314 316 314 314 315 315 315 312 306 312 310 302 302 305 306 306 305 303 297 294 295 296 297 292 291 291 290 290 287 283 292 286 290 289 288 288 297 300 302 305 307 305 307 306
311 311 312 312 313 313 313 314 314 314 314 316 314 313 314 314 315 311 306 308 307 302 302 303 303 309 310 307 304 298 298 300 298 299 294 292 289 291 285 288 290 293 294 292 292 296 298 300 302 305 305 305 307 308
311 312 312 313 313 313 313 313 313 314 314 316 313 313 313 313 314 311 304 307 307 304 297 299 309 306 311 309 309 305 302 301 300 297 291 290 290 293 290 291 290 295 295 290 291 295 297 300 300 303 306 306 307 307
311 312 312 312 312 312 312 313 313 313 314 315 312 313 313 313 312 307 305 308 308 305 297 298 303 306 304 306 306 305 303 300 297 295 294 292 292 292 292 291 288 293 293 290 290 296 294 296 300 303 305 305 305 305
312 312 312 312 312 312 312 313 313 313 315 312 311 311 312 312 311 311 305 309 307 309 300 295 301 303 304 305 303 302 301 299 298 295 293 293 295 292 288 286 295 296 298 297 297 299 299 301 302 303 300 301 303 303
311 311 311 311 312 312 312 312 312 314 312 310 310 310 311 310 307 308 305 309 308 309 300 295 296 302 305 303 301 300 299 297 296 292 292 291 291 292 287 282 295 296 299 300 300 300 298 301 299 302 303 304 304 301
311 311 311 311 312 311 311 312 314 311 310 310 310 311 310 310 309 309 310 309 308 309 302 295 295 298 303 298 297 299 296 296 294 292 291 290 290 287 282 290 294 296 298 300 300 300 298 299 301 302 302 302 300 299
311 311 311 311 311 312 313 311 309 309 309 310 311 311 310 308 307 308 317 312 309 308 300 297 294 292 301 296 296 297 295 291 293 290 290 291 288 283 286 289 293 297 298 298 300 300 300 299 299 300 300 300 299 299
311 311 311 311 312 310 309 309 309 309 309 310 309 309 305 309 317 316 309 304 305 305 303 297 298 295 298 295 293 293 292 289 283 290 294 288 287 292 293 292 294 298 300 299 295 294 295 295 298 298 299 300 300 302
310 310 310 310 309 309 309 309 310 309 310 308 308 305 309 315 309 305 300 299 299 297 298 298 297 296 299 295 293 294 290 289 284 289 289 284 286 292 298 295 295 297 300 300 299 298 299 299 300 299 300 302 302 302
309 308 308 309 309 309 309 308 308 306 303 302 302 304 306 305 300 298 296 298 297 295 297 296 297 298 297 297 294 293 289 289 285 293 289 282 290 294 298 299 299 299 301 302 302 301 301 302 302 300 300 301 302 305
307 308 307 307 308 308 308 308 308 308 307 307 307 303 301 300 292 295 293 295 294 297 299 298 296 297 296 295 292 291 288 287 292 289 284 288 292 296 299 300 301 302 303 303 303 303 303 303 303 301 301 301 302 301
308 308 308 307 307 308 308 308 308 306 309 305 301 290 295 294 297 297 299 302 303 300 299 297 296 296 295 293 292 289 291 291 287 282 287 291 294 297 300 300 300 301 302 301 300 302 301 301 301 302 301 301 301 300
308 308 308 309 309 308 308 307 307 305 308 305 302 293 298 301 302 306 307 303 301 302 301 298 297 297 294 294 293 292 291 289 289 287 290 295 297 299 298 298 298 298 297 295 296 297 299 300 299 299 298 298 299 298
309 308 308 310 309 309 308 307 304 308 307 305 302 299 302 301 301 303 303 303 302 300 300 299 295 294 294 293 292 291 291 289 291 293 295 298 297 298 299 299 299 297 295 294 296 299 298 298 296 295 296 296 297 297
308 307 308 308 309 308 308 308 309 306 305 302 299 302 302 301 301 302 305 304 300 301 296 296 295 294 295 292 291 294 291 293 297 300 301 303 301 301 302 302 299 296 294 294 294 293 294 295 295 294 293 294 295 296
307 308 309 309 307 308 307 305 307 307 303 301 298 299 302 303 302 304 306 307 302 299 299 298 299 294 292 291 291 296 300 301 304 305 305 305 304 305 306 303 299 295 294 294 292 294 294 294 293 293 293 294 294 293
307 307 308 309 308 305 304 306 305 300 303 302 302 303 303 304 306 307 307 307 303 301 302 298 297 294 294 297 301 303 302 304 303 306 306 306 306 305 305 300 298 293 294 293 293 294 294 293 294 294 294 293 292 293
307 308 308 309 308 303 303 304 307 303 300 303 303 303 304 305 307 306 305 305 302 301 300 299 296 300 303 305 306 306 305 308 306 303 303 304 306 306 301 299 296 293 293 293 293 294 294 294 294 294 295 295 293 294
307 307 308 305 302 302 301 301 304 305 306 304 306 307 306 307 307 306 305 306 304 303 302 304 306 309 309 310 311 309 307 308 306 306 304 303 306 305 300 299 295 294 293 292 293 293 294 293 294 295 295 295 296 295
305 310 303 304 302 304 301 304 302 305 304 305 304 306 304 303 304 305 307 304 304 305 306 306 305 305 305 306 308 307 308 309 306 302 303 302 301 299 299 297 295 295 294 294 294 295 294 294 295 295 294 293 294 293
307 306 304 305 302 297 297 305 303 304 299 302 307 303 303 303 306 308 304 303 304 307 307 307 307 306 306 307 305 304 305 304 302 305 303 301 301 301 301 298 297 297 295 293 294 295 295 295 295 295 294 294 294 293
307 303 301 301 300 294 301 301 304 304 303 302 302 300 302 306 308 304 301 301 304 306 306 307 307 301 300 299 300 300 304 302 303 303 305 304 300 300 301 299 298 297 298 296 294 294 295 296 295 294 294 295 295 294
296 296 295 288 299 301 300 301 302 301 300 302 302 301 302 305 301 301 300 303 303 306 307 308 307 301 298 299 301 303 304 305 302 302 302 302 300 295 295 295 294 295 297 295 293 294 293 294 295 295 295 294 294 295
291 300 294 298 299 298 298 300 301 300 301 300 303 306 306 303 301 298 300 303 306 307 307 305 305 304 300 301 302 301 304 305 303 301 300 301 298 297 294 293 292 293 295 298 296 295 294 294 295 296 296 297 294 295
293 297 301 303 301 302 300 301 304 302 300 298 302 303 300 297 298 301 305 308 308 307 304 304 306 306 304 303 304 306 306 301 300 300 298 296 298 297 298 295 293 296 297 298 298 298 297 296 296 297 296 296 296 296
299 300 298 300 300 303 300 301 300 298 301 302 304 300 299 299 298 303 306 309 309 303 303 302 301 301 301 302 305 302 295 294 295 294 295 296 293 294 295 295 294 295 298 300 299 298 298 297 297 297 297 296 295 295
299 302 300 298 301 303 301 301 302 304 307 305 301 300 303 305 307 307 308 304 302 301 300 299 300 301 301 301 301 299 295 294 294 293 292 291 291 293 293 294 294 295 296 296 295 297 298 297 297 296 297 296 296 295
297 301 298 299 299 298 301 305 306 310 309 307 306 306 304 305 309 311 306 303 301 300 300 300 300 301 299 299 298 296 293 293 294 295 293 293 294 294 294 294 294 293 294 295 294 294 293 294 293 293 293 293 293 293
300 299 299 299 298 301 304 306 309 309 308 308 309 306 307 307 309 310 308 304 302 301 301 299 297 298 298 296 295 294 293 294 295 296 296 296 295 296 295 295 295 294 294 294 294 294 293 293 294 293 293 293 294 294
299 299 298 297 298 303 304 305 306 304 304 304 304 307 309 307 303 304 305 304 302 300 298 298 298 298 299 298 296 295 295 297 296 297 297 297 298 298 297 296 295 295 295 296 295 295 294 293 293 294 294 294 295 296
301 302 304 303 300 302 306 305 303 300 302 301 302 307 308 306 302 305 306 306 304 301 299 300 301 300 300 300 299 298 297 298 296 295 295 295 296 296 295 294 296 297 297 296 296 296 296 295 293 294 295 296 295 295

GFSWCAN_sfc_thetae_114.txt.gz
Theta_e
310 311 312 313 313 314 314 314 314 315 315 315 316 314 314 314 316 308 308 308 303 298 299 303 303 298 297 293 291 293 294 295 292 288 287 286 285 288 284 287 286 285 282 282 282 282 283 300 302 294 297 305 311 313
311 311 312 312 313 313 314 314 314 314 314 315 316 313 314 314 315 312 306 311 308 302 302 304 305 305 303 301 296 294 294 294 296 291 289 289 289 288 286 283 290 286 288 288 286 286 295 299 300 305 306 307 310 309
311 312 312 312 313 313 314 313 314 314 314 315 315 313 314 314 314 311 306 306 304 301 302 303 302 308 308 306 302 297 296 299 295 297 292 290 288 289 285 287 289 292 293 291 292 295 297 299 303 306 306 307 309 310
311 311 312 313 313 313 313 313 314 314 314 314 315 312 313 313 313 311 305 305 306 300 297 299 307 305 307 305 306 302 301 299 297 295 290 289 289 292 288 289 289 293 293 291 291 295 297 300 301 303 306 308 309 310
310 311 312 312 312 312 312 313 313 313 314 314 313 312 312 313 312 306 304 305 307 303 296 297 301 304 303 304 304 303 301 298 295 295 292 291 290 291 290 290 288 293 292 290 291 296 295 296 300 304 305 306 307 307
310 311 312 312 312 312 312 312 313 313 313 315 311 311 311 312 311 308 303 307 307 307 299 294 300 301 303 303 302 300 299 297 295 294 291 292 293 291 287 286 293 295 297 296 295 298 298 301 303 303 303 305 306 306
311 312 311 311 312 312 312 312 312 313 314 310 310 310 311 310 306 306 303 307 307 307 300 294 295 301 304 302 300 298 297 294 295 290 290 290 290 290 287 282 293 297 298 300 301 301 298 301 299 303 303 305 306 304
311 311 311 311 312 311 311 312 313 313 310 309 310 310 310 310 309 307 308 309 309 306 301 294 294 297 301 297 295 296 295 293 292 290 290 289 289 287 283 290 293 296 298 299 300 299 299 300 301 302 303 303 301 300
311 311 311 311 312 313 313 311 310 309 309 310 311 311 309 308 306 306 316 311 309 306 298 295 292 291 299 294 295 295 293 290 291 289 289 290 288 281 287 289 292 296 297 298 300 300 300 299 299 301 302 301 300 300
311 311 312 312 310 309 309 309 309 309 309 310 308 307 304 306 316 314 307 302 303 303 301 297 296 294 297 293 292 292 290 287 283 289 292 288 286 291 292 291 294 297 299 299 296 294 296 296 299 299 300 301 301 301
309 309 309 309 309 309 309 309 309 309 310 307 306 303 307 313 308 303 299 296 297 296 297 297 296 295 298 294 292 292 288 287 284 287 288 283 285 291 296 295 293 296 299 300 300 298 299 299 299 300 301 303 303 303
308 308 308 308 309 309 308 308 308 304 301 302 304 305 306 303 299 296 295 296 296 295 295 296 296 296 295 296 293 292 288 288 285 291 289 282 289 293 296 298 296 296 300 302 301 301 301 302 302 301 300 301 303 304
308 307 307 307 308 308 308 308 308 308 307 306 306 302 300 298 290 294 292 294 293 296 296 296 295 296 294 294 291 290 288 287 292 288 284 288 292 295 296 298 299 298 300 302 303 302 302 303 304 302 301 302 303 303
309 308 308 309 309 308 308 307 308 307 309 304 301 289 294 292 295 296 296 297 300 298 297 296 294 294 293 292 290 288 290 290 286 282 287 291 293 297 298 301 301 301 302 303 303 303 303 303 303 303 304 303 303 302
309 309 308 309 310 309 308 308 307 305 308 304 302 293 296 299 300 301 303 302 301 300 298 297 296 295 292 292 292 291 289 288 288 287 290 293 295 296 299 300 300 301 300 298 299 299 301 302 301 299 299 299 300 300
309 308 308 310 310 309 308 307 304 307 306 304 303 299 300 300 300 301 303 301 301 298 298 297 294 293 293 292 291 290 289 288 291 293 295 299 298 299 298 299 300 299 296 297 296 298 300 299 297 296 297 298 298 298
308 308 308 308 309 308 307 308 309 305 303 302 299 300 300 300 300 301 303 305 301 299 295 295 294 293 294 291 290 292 291 292 295 298 302 301 302 300 300 301 299 298 297 296 295 295 295 296 296 296 295 296 296 297
307 309 309 309 307 308 306 304 307 307 303 302 297 296 300 302 300 301 303 301 301 299 297 296 299 294 293 291 291 295 297 300 303 304 305 304 303 303 305 303 301 298 297 295 294 295 295 295 295 295 295 296 296 295
308 308 309 308 308 304 304 305 303 298 302 303 300 301 301 302 303 304 304 306 304 300 299 298 297 293 293 296 300 299 302 303 303 305 307 304 305 305 305 304 298 295 295 293 294 295 295 296 296 296 296 296 295 295
308 308 308 309 308 302 301 302 305 299 298 302 301 301 301 302 304 305 304 304 301 299 296 295 294 296 299 304 306 307 306 307 305 303 303 305 306 306 303 301 296 294 293 293 294 294 295 296 296 297 297 296 296 297
306 306 308 305 302 301 300 299 300 302 301 301 304 306 306 304 305 304 305 304 301 299 297 299 302 307 306 309 310 309 307 305 306 305 303 302 305 306 303 298 294 293 293 293 294 294 295 295 296 297 297 298 298 298
305 309 302 303 300 303 302 301 299 302 299 302 302 305 302 301 302 303 305 303 302 302 304 305 305 305 305 305 306 307 308 307 308 305 302 303 303 300 299 297 295 294 294 294 295 295 295 295 296 297 297 296 296 296
307 306 303 303 301 298 296 303 300 302 298 299 304 302 301 302 304 307 302 302 302 304 305 306 306 306 306 305 305 307 309 305 302 303 304 302 302 301 301 299 298 297 295 294 295 296 296 295 296 297 297 297 296 296
307 302 300 298 298 293 300 298 301 301 301 301 300 299 301 303 307 305 303 302 303 305 304 305 305 302 301 302 301 301 301 300 300 303 304 300 300 300 301 302 300 300 300 297 296 296 297 296 295 297 296 298 297 296
298 296 295 288 298 301 298 298 299 300 298 300 300 301 302 303 299 301 300 301 302 304 305 306 306 302 301 299 298 300 304 302 301 303 304 303 300 297 298 299 299 299 298 296 295 296 296 297 297 297 296 297 297 298
289 298 293 296 297 295 297 298 301 298 299 298 301 303 303 301 299 298 300 302 303 305 306 305 305 303 299 299 299 301 304 304 303 302 301 302 302 301 298 297 296 297 297 299 297 297 297 297 298 298 297 297 294 297
292 298 299 301 299 300 298 302 304 300 298 297 300 301 299 296 296 300 303 305 306 306 304 303 305 305 302 299 302 304 302 302 303 302 300 301 302 301 300 299 298 299 298 299 299 299 298 297 297 298 298 299 299 299
300 299 296 299 299 300 298 299 299 298 299 302 303 300 298 298 297 303 305 308 308 303 302 301 300 301 301 303 305 298 295 294 295 294 294 295 294 295 297 297 297 294 299 300 300 300 300 299 298 298 299 299 299 299
298 301 300 297 299 300 300 299 300 303 306 304 301 300 302 305 306 307 308 306 303 302 300 300 301 301 301 301 299 295 295 295 296 295 295 294 295 296 296 296 296 297 298 299 295 298 300 300 300 300 300 300 300 299
297 300 297 298 297 297 300 303 305 308 308 307 307 305 305 304 309 310 304 302 301 301 300 300 300 301 300 300 299 296 295 294 295 296 294 294 295 297 296 296 296 296 297 298 298 297 294 297 295 298 298 298 298 298
299 298 297 297 297 300 303 305 308 308 307 306 308 304 303 305 306 310 306 303 301 300 300 299 299 299 299 299 298 298 296 296 295 296 297 297 297 297 297 297 297 296 297 297 297 297 296 296 296 296 296 296 297 296
298 298 298 296 297 301 305 305 305 304 303 302 303 305 306 307 304 303 305 303 302 301 300 299 299 300 301 300 299 298 296 298 297 297 298 297 297 299 298 297 296 297 297 297 297 297 297 297 297 297 296 297 297 298
298 298 299 299 298 301 304 304 301 300 300 300 301 305 307 306 302 305 306 306 305 304 302 300 301 300 300 299 300 300 296 299 298 294 294 294 295 296 298 297 298 298 298 298 298 298 297 297 296 296 297 297 298 299

GFSWCAN_sfc_thetae_117.txt.gz
Theta_e
311 311 312 313 313 313 314 314 314 314 315 315 315 315 314 314 315 314 316 317 312 308 308 309 308 306 304 304 302 302 303 304 303 299 298 297 298 300 298 298 297 295 295 294 293 291 288 306 308 301 308 313 316 320
310 311 312 313 313 314 314 314 314 314 315 314 315 316 314 314 315 314 316 317 315 312 310 311 313 312 309 308 306 305 304 304 306 302 301 302 299 300 297 296 299 296 299 299 297 298 304 307 308 314 315 314 318 321
311 311 311 312 313 313 314 314 314 314 314 314 315 315 313 313 314 313 316 314 314 312 311 312 310 314 315 312 311 307 307 307 306 308 305 303 298 301 298 299 299 300 301 303 301 304 306 307 311 314 314 314 316 320
311 310 311 312 313 313 313 314 313 314 314 314 315 314 313 313 313 312 314 314 313 310 306 307 313 311 313 313 312 310 309 308 307 306 304 302 300 301 299 299 300 303 302 301 301 304 306 307 309 310 314 316 317 317
310 310 311 312 312 312 312 313 313 313 314 314 315 312 312 312 312 313 315 314 316 312 305 306 309 311 311 311 311 311 310 309 308 305 305 303 303 302 302 301 300 304 303 302 303 305 306 306 309 310 313 314 316 316
310 311 312 312 312 312 312 312 313 313 313 314 314 311 311 311 311 317 312 316 316 314 310 303 309 309 311 311 309 308 308 307 307 307 304 303 301 302 300 299 302 304 305 307 307 307 307 307 309 310 310 312 314 316
310 311 312 312 312 312 312 312 313 313 313 314 310 310 310 310 314 315 309 313 311 317 310 304 305 309 310 310 310 308 307 304 306 303 303 303 302 302 300 298 302 306 307 307 308 309 306 307 307 309 309 310 312 313
311 312 311 311 312 312 312 312 312 313 312 310 309 310 310 310 311 314 315 311 314 313 311 303 304 305 309 308 306 307 306 305 302 301 301 301 299 299 296 302 302 306 307 307 307 307 308 309 309 309 310 309 308 311
310 311 312 312 312 311 312 311 310 309 309 309 311 311 315 315 315 314 315 314 319 316 308 306 303 301 308 305 306 305 305 301 301 301 301 301 297 290 299 302 302 305 306 308 308 307 307 307 307 308 308 307 307 308
310 309 310 309 309 309 309 310 310 310 310 310 313 314 311 313 316 316 314 310 312 312 311 308 306 303 307 304 302 303 302 300 298 299 302 299 298 303 303 302 303 307 308 309 306 303 304 305 306 307 307 308 309 309
309 309 309 309 309 309 309 309 309 310 310 314 313 310 314 313 315 311 306 304 305 304 308 308 306 304 307 303 302 303 300 299 294 297 298 297 296 301 305 306 304 306 309 309 307 307 307 308 307 307 308 309 310 310
309 308 308 309 309 308 309 308 308 309 309 309 310 311 314 310 307 304 302 303 303 301 304 304 305 306 305 306 304 301 298 297 291 300 297 294 300 305 305 306 305 306 308 308 309 308 308 308 309 309 309 309 310 311
309 309 309 309 309 309 308 308 308 308 309 313 312 308 307 304 294 298 296 300 300 304 303 303 303 306 303 305 301 301 296 295 300 296 295 298 304 305 306 307 306 306 308 309 309 310 309 309 310 310 310 310 310 311
309 309 309 309 309 310 309 308 308 309 313 310 305 293 299 298 300 301 302 304 308 306 305 306 303 304 303 301 301 295 298 298 293 291 293 302 304 305 306 307 307 306 305 307 308 310 309 310 310 309 307 308 308 308
309 309 309 309 310 310 309 308 308 310 313 308 307 295 300 304 305 307 308 308 309 308 305 304 303 305 302 300 301 298 295 293 295 295 300 303 306 306 306 306 306 307 306 307 309 309 309 309 307 307 307 307 307 308
309 309 309 309 309 309 308 308 309 313 311 308 307 304 306 305 305 306 307 308 309 306 306 307 302 301 300 301 297 296 294 294 299 303 304 306 306 308 306 305 306 308 308 307 307 307 305 305 304 304 306 307 306 306
309 308 309 308 308 308 307 309 310 306 304 304 302 308 306 305 305 308 309 310 309 306 304 305 300 299 301 299 297 300 298 303 305 305 307 308 308 305 306 306 306 305 305 305 304 304 303 305 305 305 304 305 305 306
307 309 309 308 309 310 310 309 309 305 302 305 301 302 305 307 306 307 308 308 307 306 305 304 305 300 299 297 299 304 305 307 308 309 307 306 307 307 308 306 304 303 301 302 303 304 305 305 304 305 306 306 305 305
308 309 309 309 309 308 307 308 307 301 303 308 307 306 305 306 309 310 310 311 311 310 307 305 302 301 302 305 307 308 309 308 310 309 311 311 309 305 308 307 302 303 304 303 304 304 304 305 304 305 305 306 305 306
309 309 309 309 309 304 302 306 310 304 303 306 308 305 306 308 310 311 310 310 306 306 303 302 303 306 307 311 312 314 314 315 312 310 308 309 309 309 307 302 303 305 303 303 304 301 304 304 305 306 306 305 305 304
307 308 309 309 305 304 303 304 306 307 308 307 310 309 310 310 308 309 310 311 308 306 305 309 311 313 315 317 318 318 316 315 313 313 311 307 310 311 304 307 306 304 302 302 302 302 300 303 305 306 306 306 306 306
307 309 308 307 305 306 303 307 304 307 305 308 307 310 308 307 308 310 312 310 311 315 313 314 314 315 315 314 315 315 316 315 315 311 305 306 307 307 304 306 305 303 303 303 304 304 303 304 306 306 305 305 302 305
308 309 308 306 302 299 298 308 305 307 302 304 309 307 308 308 310 312 310 312 313 313 314 315 315 315 315 313 312 314 315 315 312 312 310 310 311 310 310 308 307 305 304 304 305 305 305 300 301 304 305 304 304 304
307 306 303 302 298 294 304 303 306 305 306 305 305 303 306 309 312 309 308 310 312 314 314 314 313 310 309 310 311 312 313 312 312 312 312 310 309 310 311 310 309 309 308 308 305 305 306 304 301 304 304 304 304 304
298 297 298 289 303 301 301 302 302 304 302 305 304 305 306 309 305 305 305 308 310 312 313 313 313 311 310 308 307 307 308 310 310 309 309 311 310 309 309 310 310 310 309 307 305 305 305 305 304 304 304 303 303 303
291 299 294 299 299 298 300 299 300 301 302 302 304 308 309 307 303 302 307 311 312 312 312 311 311 309 306 309 306 307 309 311 311 309 311 311 311 309 309 308 308 308 309 310 308 305 305 304 304 304 303 302 295 302
292 298 303 307 304 304 302 304 305 303 301 301 305 305 304 299 300 307 312 313 312 312 311 310 312 312 311 308 309 311 309 312 312 311 310 312 312 312 312 309 308 310 309 309 308 307 306 305 304 305 304 304 304 304
301 302 299 302 303 304 301 302 301 301 303 307 307 302 301 301 303 311 312 314 311 309 308 307 308 312 311 310 310 308 307 308 307 306 305 305 307 309 309 310 309 296 308 309 309 309 308 306 305 305 304 303 304 306
300 304 303 300 302 303 304 303 304 309 311 309 306 304 306 312 313 313 314 314 309 309 309 308 307 309 309 308 307 306 305 305 304 303 302 302 303 304 306 305 305 306 307 306 296 303 307 306 306 306 305 305 306 307
301 305 302 301 300 301 306 309 310 313 314 313 312 311 312 313 316 316 311 309 309 308 309 309 309 310 308 306 304 304 305 305 305 305 302 302 304 306 306 306 305 305 306 306 306 304 294 303 299 305 304 305 305 305
304 303 301 302 301 305 308 310 312 314 313 312 313 310 309 312 314 317 312 311 309 309 308 307 307 309 308 308 306 305 304 306 305 305 305 306 307 306 307 306 306 305 305 306 306 305 305 304 305 304 304 304 304 301
303 302 301 300 302 307 308 308 310 310 309 309 310 313 313 311 308 311 313 310 309 308 305 308 309 309 310 310 311 311 298 309 309 308 307 305 305 306 307 306 305 305 305 305 305 305 305 304 304 303 303 303 303 302
303 303 304 303 303 304 309 309 307 306 308 308 308 310 311 308 306 311 313 313 314 314 312 312 312 311 309 308 308 309 301 308 304 295 295 296 297 301 305 305 305 305 305 304 304 304 304 303 303 303 303 303 303 303

GFSWCAN_sfc_thetae_120.txt.gz
Theta_e
312 311 311 312 312 313 314 314 315 315 315 315 315 315 316 314 315 317 324 326 320 313 313 314 313 311 311 311 304 309 307 309 307 301 300 301 299 304 302 302 300 299 298 297 298 296 293 311 310 304 314 317 317 322
312 312 311 312 312 313 314 314 315 315 315 315 315 315 316 314 314 315 322 326 325 318 314 319 318 318 316 314 311 313 309 308 309 305 305 308 302 305 302 297 307 299 303 301 300 302 312 314 314 317 320 320 320 323
311 311 311 311 312 313 314 314 314 315 314 315 315 315 316 314 314 314 325 326 322 316 315 316 313 317 319 318 319 309 314 314 313 316 310 308 301 308 299 300 303 306 308 304 304 308 310 313 316 317 322 322 321 326
311 311 311 311 312 313 313 313 314 314 314 314 315 315 314 313 313 312 323 325 322 319 311 311 318 314 318 319 318 317 316 317 317 315 308 306 302 308 303 304 305 308 308 306 306 311 311 313 315 316 320 323 323 324
310 310 311 312 313 313 313 313 313 313 314 314 315 315 313 313 312 318 326 326 326 317 309 310 315 315 316 317 316 317 318 316 312 308 306 305 309 306 308 307 303 309 307 304 303 313 313 314 315 317 317 319 321 322
310 311 311 312 312 312 313 313 313 313 313 314 315 314 311 312 312 323 317 324 327 324 313 305 315 313 315 315 313 313 317 317 315 310 312 313 309 307 302 301 306 310 312 313 311 315 313 315 316 316 316 318 319 321
310 311 312 312 312 312 312 312 313 313 313 313 314 310 310 311 321 317 312 318 314 326 313 307 308 314 315 316 317 315 314 314 312 312 309 311 309 306 305 301 305 311 312 313 314 314 311 312 313 315 315 317 317 319
310 311 312 312 313 313 312 312 312 312 313 312 310 310 311 311 312 317 321 315 319 322 316 307 307 309 316 312 310 316 313 311 310 310 308 306 307 308 303 307 309 312 313 313 313 313 314 315 314 314 315 315 315 316
310 310 310 310 310 310 310 311 312 311 310 310 310 311 317 319 316 318 314 316 329 321 309 308 304 303 314 313 314 311 313 306 310 305 307 306 305 295 303 307 307 311 311 312 313 312 312 311 311 312 312 312 313 314
310 309 309 309 310 310 310 310 310 310 310 310 313 317 313 319 315 317 317 315 317 317 316 308 313 305 311 310 309 310 310 307 303 305 309 303 303 308 309 308 308 311 313 314 310 309 310 309 310 310 311 314 314 314
309 309 309 309 309 309 309 309 309 310 309 317 317 316 319 314 318 316 309 308 310 306 310 310 309 307 315 306 307 311 308 307 299 302 302 303 302 306 308 311 309 312 314 314 313 311 309 309 308 309 309 311 313 313
309 309 309 309 309 310 309 308 309 314 318 313 316 318 319 315 313 307 304 308 305 301 309 306 308 312 311 316 309 308 304 304 296 306 302 300 307 309 309 310 310 312 313 312 310 309 309 309 310 309 309 309 311 312
309 309 309 309 310 310 310 308 308 309 309 319 317 312 311 309 296 299 298 301 304 308 310 310 306 310 310 312 309 305 299 299 307 300 300 302 310 311 312 311 310 313 314 311 311 312 312 312 313 312 311 312 312 313
309 309 310 310 310 310 310 308 308 310 315 313 308 294 301 300 301 303 305 308 311 311 310 310 308 309 311 306 308 299 304 304 297 296 298 306 310 312 313 312 310 309 311 311 312 312 312 313 313 314 315 316 314 313
309 309 309 309 310 311 310 309 309 312 314 308 309 298 302 306 311 312 314 313 314 314 311 309 309 310 307 304 305 304 298 296 298 300 307 309 314 314 313 312 311 309 309 310 312 313 314 314 314 313 313 314 314 314
309 309 309 310 309 309 308 310 312 313 311 308 309 306 309 307 306 309 311 311 315 312 313 312 307 304 303 306 301 299 298 297 304 309 312 314 315 316 315 314 313 312 312 313 312 313 314 313 311 310 309 311 311 309
309 309 309 308 309 308 308 312 312 307 305 304 304 309 310 311 311 314 313 314 317 311 307 308 303 302 308 302 300 305 303 308 313 312 313 317 317 316 313 315 313 310 312 314 313 312 309 309 308 307 307 310 311 311
310 310 309 309 309 311 311 311 309 306 301 305 303 305 308 309 309 312 314 315 314 312 312 307 311 304 302 300 303 308 311 313 314 314 315 318 318 317 314 310 312 313 312 309 308 306 307 306 306 307 309 310 309 309
309 310 310 309 309 311 308 308 310 302 304 307 308 308 309 308 310 311 314 316 316 318 315 311 306 305 306 310 310 311 314 314 312 315 318 316 318 317 311 309 310 309 307 304 304 306 307 308 306 307 308 310 307 308
309 309 309 309 309 309 305 308 314 306 303 307 309 307 309 307 310 312 310 311 313 312 310 308 308 311 312 314 317 316 317 318 316 316 316 316 317 314 309 307 305 305 306 308 308 304 307 306 307 308 308 308 309 306
308 308 309 310 306 305 307 308 309 311 312 310 314 311 309 312 311 310 310 314 309 307 308 313 313 316 322 321 322 322 321 320 317 319 319 310 314 313 311 307 306 307 308 306 306 305 303 306 306 307 307 308 308 308
308 309 313 311 305 307 307 311 308 311 310 309 310 311 307 308 309 311 315 311 309 311 315 316 318 319 320 320 321 322 323 321 321 317 309 310 311 311 310 307 309 309 308 307 307 307 307 307 307 307 307 307 305 307
308 311 311 310 304 300 300 313 306 308 302 306 310 307 309 311 315 317 311 313 314 320 322 321 323 324 323 321 320 320 321 320 318 316 315 315 315 313 309 311 312 310 307 308 309 308 308 303 305 307 306 307 306 305
307 307 305 303 302 298 309 306 310 308 308 305 304 303 306 311 316 312 309 315 318 320 319 321 319 317 317 318 317 317 319 319 318 317 316 314 312 311 313 312 312 312 310 310 309 309 310 309 304 306 306 305 305 305
297 298 301 293 306 302 302 303 304 305 302 305 304 306 310 315 308 306 307 313 315 317 317 319 318 317 317 316 315 316 319 316 313 313 315 314 313 313 312 313 313 314 313 310 309 309 309 310 308 307 306 305 305 304
291 300 296 301 302 301 303 299 301 302 304 303 306 312 314 310 302 302 309 315 315 316 316 317 316 314 313 315 311 311 314 316 315 312 314 315 314 312 311 311 311 312 316 314 311 310 309 309 309 307 305 303 297 303
292 299 306 311 306 306 305 307 308 306 303 302 308 306 306 300 300 309 315 318 316 315 315 316 315 314 314 314 314 315 315 316 316 314 316 317 316 316 315 312 310 311 315 314 312 312 310 309 308 307 305 305 306 305
302 304 300 304 306 307 302 304 303 302 306 311 310 304 302 303 305 314 316 316 314 314 315 316 316 317 318 316 315 314 314 316 316 315 314 315 317 317 317 319 316 296 314 315 315 314 312 309 308 307 306 305 305 306
303 308 307 303 304 305 305 304 307 310 313 308 306 305 307 316 317 315 315 314 314 315 314 314 315 317 314 314 314 314 312 311 309 307 307 306 307 309 314 314 314 313 313 313 299 305 310 308 307 307 306 306 306 307
303 308 304 303 302 302 308 311 310 314 318 316 316 315 314 314 320 321 316 313 312 310 313 315 314 313 311 310 308 308 311 312 313 309 305 305 306 308 310 310 310 310 311 311 310 309 296 304 302 306 305 306 306 305
309 307 304 304 304 308 310 314 316 316 317 315 317 314 312 315 318 319 316 315 315 313 311 310 311 311 310 308 307 306 305 309 310 310 311 311 312 310 310 311 312 310 310 310 309 308 307 306 306 306 306 305 305 304
305 304 303 301 303 309 311 308 309 311 314 313 313 315 315 313 308 313 318 316 313 312 308 310 309 308 312 313 312 313 299 311 310 310 311 311 312 311 310 310 310 309 309 309 309 308 308 307 306 306 305 305 305 305
305 305 305 305 306 306 310 310 309 310 312 312 313 315 314 310 307 313 319 319 317 316 315 315 315 315 315 315 314 313 304 313 307 295 297 297 298 303 309 310 310 309 308 307 307 307 307 306 306 305 305 305 306 306

GFSWCAN_sfc_thetae_123.txt.gz
Theta_e
314 312 312 312 313 313 313 314 315 315 315 316 316 316 316 316 315 316 328 332 325 316 316 317 316 314 314 313 306 312 307 310 307 303 303 304 302 302 303 304 302 301 300 299 301 297 294 313 310 304 316 319 319 320
312 312 312 312 312 312 313 314 315 315 315 316 316 316 316 317 315 315 324 329 330 321 318 322 320 320 317 315 311 313 309 311 310 306 308 307 304 303 302 298 308 299 303 301 302 303 314 314 316 319 320 319 321 322
311 312 312 312 312 312 313 314 315 314 315 315 315 315 316 316 314 314 325 329 325 318 317 317 316 319 319 318 319 310 315 316 314 316 309 308 302 305 300 301 303 306 311 304 305 309 310 314 318 319 320 320 323 325
311 311 311 311 312 313 314 314 314 314 314 314 315 315 316 315 314 313 325 328 326 319 311 314 320 317 319 319 318 318 318 320 317 314 308 306 304 311 302 306 306 307 306 306 305 309 311 313 316 317 320 322 324 326
311 311 311 311 312 313 313 313 313 314 314 314 315 315 316 314 312 317 327 329 329 320 311 313 317 317 318 318 316 317 317 315 312 309 307 305 311 309 306 306 304 308 307 303 302 312 313 314 317 318 317 319 322 323
310 311 311 312 313 313 313 313 313 313 314 314 314 315 314 312 312 325 318 325 329 327 316 306 318 316 317 317 314 315 318 315 313 311 311 313 314 307 301 302 308 310 312 315 312 312 316 319 318 317 317 318 320 323
310 310 311 312 313 312 313 313 313 313 314 314 314 314 311 311 316 318 315 321 315 329 314 309 310 316 318 318 317 315 314 315 312 313 311 310 312 308 304 301 308 310 312 314 317 316 314 316 315 317 318 319 319 320
310 310 310 310 311 311 312 312 312 313 313 314 312 310 311 311 313 315 323 316 320 320 317 309 310 311 318 312 312 318 313 313 310 309 312 306 311 309 304 308 310 312 313 314 315 316 317 318 318 317 318 318 317 317
310 310 310 310 310 310 310 310 310 313 312 310 310 311 318 317 313 318 317 317 330 323 310 309 306 305 316 314 318 314 314 307 313 305 308 310 305 301 306 309 310 312 313 313 315 315 314 314 315 316 316 316 315 315
310 310 309 309 310 310 310 310 310 310 310 310 314 316 310 317 316 317 317 315 316 316 317 311 312 308 312 312 310 313 312 310 305 308 311 304 304 312 312 312 312 312 315 315 313 311 312 312 313 313 314 316 316 316
310 310 309 309 310 310 310 309 310 310 309 317 316 316 321 314 318 315 310 309 311 308 312 311 312 309 315 308 309 314 311 310 302 306 304 306 305 310 312 313 314 312 315 315 316 315 315 313 313 312 313 314 315 315
310 309 310 309 310 311 311 309 308 311 319 315 319 320 319 315 313 307 306 308 308 305 310 309 310 312 312 318 312 311 306 308 300 308 303 304 309 313 312 312 313 313 314 313 314 311 310 311 311 311 311 311 313 314
310 309 309 310 310 310 311 309 308 309 311 319 317 312 311 310 299 300 299 303 304 308 311 311 308 312 314 313 312 310 302 302 310 302 304 305 315 314 315 313 313 313 314 314 312 312 312 312 313 312 312 313 313 313
309 310 310 310 310 310 311 310 310 311 314 313 308 296 303 301 302 303 305 307 312 312 312 312 309 309 311 308 310 303 308 308 300 299 301 309 316 316 316 314 313 312 313 313 312 313 313 314 314 315 314 316 315 313
308 309 310 310 310 311 310 309 309 312 315 307 307 299 302 306 309 310 312 315 315 315 312 310 310 311 308 306 308 306 301 299 301 302 309 314 318 317 316 315 313 313 312 311 312 311 313 314 314 316 315 316 315 316
309 309 313 311 310 310 308 311 312 313 311 308 307 304 307 306 306 309 311 312 316 314 314 312 308 305 305 306 303 302 300 299 306 311 313 319 320 320 319 318 317 316 315 313 312 312 314 316 316 315 315 314 313 311
308 311 309 308 309 308 308 313 314 307 306 304 302 306 306 309 309 308 312 312 318 312 307 308 303 303 309 304 302 306 304 308 315 313 316 322 322 321 321 320 319 318 317 315 316 315 310 310 311 311 310 309 311 311
312 311 309 309 309 310 311 312 307 304 301 304 303 305 308 309 309 313 316 319 316 313 311 307 310 304 303 301 303 309 311 315 318 319 317 321 323 323 321 319 318 317 317 315 310 308 309 310 308 306 310 311 310 311
311 311 310 310 310 308 306 305 308 301 303 306 307 308 310 310 310 312 315 318 319 321 314 312 307 305 306 310 311 314 315 316 315 321 324 325 324 321 318 317 318 314 313 311 311 308 307 310 310 309 309 308 309 310
309 310 310 310 309 309 306 307 311 306 303 306 309 308 309 309 310 310 312 315 317 315 311 307 309 310 313 313 319 319 319 320 318 318 319 319 319 317 316 314 313 313 309 308 307 304 309 307 308 308 309 309 308 307
307 310 309 310 310 310 308 309 310 312 312 310 314 311 307 312 310 309 310 313 311 311 310 313 314 317 324 322 323 322 324 323 319 322 322 316 318 315 314 313 312 310 304 308 308 306 305 307 308 309 307 308 309 308
310 309 310 311 306 306 306 311 310 312 310 309 309 311 308 307 308 309 314 309 307 309 313 315 316 317 319 325 324 327 326 326 325 318 312 313 316 312 311 312 310 308 310 309 308 307 308 308 308 308 308 308 306 308
308 311 313 311 306 303 302 314 307 308 303 306 308 306 306 307 309 316 310 311 312 315 314 315 323 328 327 327 327 326 325 323 320 325 318 318 317 315 313 311 311 310 309 309 310 309 308 304 306 307 308 309 307 307
308 309 306 305 305 300 309 306 310 308 307 305 305 304 305 312 317 314 309 314 319 322 321 324 324 321 323 323 322 325 322 323 321 318 317 316 313 313 313 311 311 311 310 311 310 310 309 309 305 307 307 306 305 305
298 299 303 294 307 303 302 304 305 305 303 304 304 305 310 315 309 306 306 312 319 322 325 322 322 321 321 321 324 325 323 320 315 314 315 316 315 314 312 312 313 313 312 310 309 308 308 310 308 307 306 306 305 305
292 300 296 303 303 303 302 300 302 303 306 304 306 312 313 308 302 301 309 313 319 318 318 320 320 320 318 318 315 316 317 318 316 312 314 315 313 312 310 309 308 309 314 313 310 309 309 309 309 307 306 305 299 304
293 300 306 310 308 308 307 307 308 307 305 304 310 307 305 300 301 309 318 320 317 318 319 319 319 318 317 317 317 317 318 318 316 314 317 316 315 317 314 311 311 313 315 314 312 311 310 310 308 307 307 306 307 306
304 306 302 307 307 307 303 305 305 304 308 314 312 303 302 304 307 318 318 317 316 316 317 318 318 318 318 317 316 316 316 316 318 317 316 316 317 315 317 316 318 301 315 314 312 313 312 311 309 308 307 306 307 308
304 308 306 303 305 307 307 307 307 314 314 314 310 308 310 318 319 315 315 315 318 318 315 314 316 318 317 317 318 316 316 314 312 310 309 308 309 311 316 315 315 315 315 314 300 303 312 311 310 309 308 307 308 308
304 307 304 305 304 304 310 312 312 314 315 316 318 317 317 319 323 320 316 316 314 314 316 317 316 315 314 313 311 312 314 314 313 310 308 308 308 311 312 313 314 313 314 314 313 311 297 307 304 308 306 307 307 307
307 307 304 305 304 307 310 313 316 316 315 315 318 315 314 316 319 319 317 319 314 314 314 316 314 314 312 311 310 309 308 312 312 313 311 312 312 312 313 313 315 314 311 311 312 311 309 307 307 306 305 305 306 304
307 305 305 303 305 311 313 312 311 311 313 314 314 316 316 313 309 313 317 317 315 313 307 311 311 312 314 312 312 312 298 312 312 312 312 312 315 315 314 314 313 313 311 310 310 310 309 308 307 307 305 307 307 307
306 307 307 306 305 307 310 309 309 309 311 312 313 314 312 310 307 313 319 319 318 317 314 316 316 315 315 314 316 314 306 315 305 297 301 300 299 304 313 312 312 312 309 309 309 309 309 308 308 308 307 307 307 307

GFSWCAN_sfc_thetae_126.txt.gz
Theta_e
314 314 313 313 313 313 313 313 314 315 316 316 316 316 317 316 317 313 320 330 325 321 316 317 318 315 312 310 306 310 308 309 307 303 302 302 302 304 301 304 302 301 299 299 300 298 295 313 310 304 313 318 318 319
313 312 312 313 313 313 313 313 314 315 315 315 316 316 317 317 317 314 319 328 330 324 318 322 320 319 317 315 311 309 309 311 310 306 307 306 303 304 303 298 307 299 303 301 303 303 314 314 315 317 317 318 318 320
312 312 312 312 312 312 313 314 314 315 315 315 316 316 316 317 317 313 316 325 325 320 317 316 314 319 320 318 317 307 314 316 315 316 310 307 304 306 299 301 303 307 310 304 303 310 311 308 317 318 317 317 319 321
311 312 312 312 312 313 313 314 314 314 314 315 315 316 316 317 316 312 318 327 326 321 310 314 322 318 319 319 317 318 317 321 317 314 307 306 304 310 304 305 304 308 309 304 304 310 311 310 310 317 317 318 319 321
311 311 311 312 312 313 314 314 313 314 314 314 315 315 316 316 313 312 321 326 329 321 312 314 319 319 318 318 315 316 315 314 311 308 306 304 309 309 309 305 302 307 307 303 302 312 311 312 317 318 316 318 320 319
311 311 311 312 313 313 312 313 314 314 314 314 315 315 316 314 312 319 318 326 328 326 317 309 318 315 317 317 315 314 316 314 313 311 309 312 316 311 301 300 309 310 310 313 312 316 314 313 314 315 317 317 319 320
311 311 311 311 311 311 311 313 313 313 314 314 314 315 314 311 313 317 314 319 314 328 314 307 311 317 318 317 316 314 314 312 311 310 309 309 312 311 303 299 308 311 313 314 318 317 312 314 312 316 317 319 318 320
310 311 311 310 310 311 311 311 313 313 313 314 314 313 311 311 312 317 323 315 317 321 313 306 309 313 318 312 311 317 312 313 311 308 312 309 312 310 304 308 310 312 312 313 314 316 315 317 318 317 318 318 316 315
310 311 310 310 310 310 310 310 310 310 313 313 311 311 315 316 314 317 319 320 329 322 309 308 305 306 316 312 316 316 314 307 314 308 306 309 306 303 308 309 310 311 313 313 315 314 314 315 315 316 316 316 314 315
310 310 310 310 310 310 310 310 310 311 311 311 311 314 308 313 316 318 316 313 315 316 319 312 312 309 314 311 311 310 312 308 306 308 312 307 304 313 314 314 314 313 314 315 312 311 312 312 313 314 314 315 315 316
311 310 310 310 310 311 311 309 310 310 308 314 313 317 322 315 318 313 306 305 308 306 309 310 312 309 315 309 308 312 311 309 302 307 304 305 305 311 315 314 315 314 314 315 316 316 316 315 313 313 313 314 315 315
311 310 310 310 310 311 311 309 308 311 317 311 310 315 319 312 310 305 305 307 306 303 310 309 310 312 313 317 312 312 306 307 300 310 303 302 310 317 314 313 315 315 313 314 314 315 314 313 313 312 313 313 313 316
310 310 310 310 310 311 311 310 310 309 311 322 314 312 308 308 298 300 298 301 303 309 312 311 309 312 315 314 309 309 303 303 311 303 304 306 318 316 316 315 314 314 314 313 314 313 312 312 313 313 312 313 314 314
309 310 310 310 310 311 311 310 310 312 311 309 305 294 302 301 302 304 304 306 310 311 311 312 310 310 311 308 309 303 307 309 301 300 301 311 320 318 317 316 315 312 313 313 313 312 312 315 313 315 315 315 316 316
308 309 310 310 310 311 311 310 310 312 312 305 305 296 300 306 308 308 310 313 315 316 313 310 310 310 308 306 308 306 303 299 301 302 309 315 323 321 318 316 315 314 314 313 314 313 314 316 315 316 317 316 317 318
309 308 312 311 311 311 310 311 311 313 310 307 306 304 306 305 305 307 310 311 317 314 313 311 308 305 304 306 303 301 300 299 304 311 316 321 324 323 320 317 317 316 316 315 314 314 315 317 316 312 316 314 313 313
307 313 309 309 309 309 309 311 312 304 305 303 303 307 306 306 306 308 310 311 318 312 307 308 303 302 308 303 302 306 303 308 315 316 319 326 327 326 324 321 320 320 320 321 320 314 315 314 312 312 309 310 313 312
309 310 309 309 310 310 311 311 306 303 300 304 302 304 306 308 308 308 313 316 313 313 311 307 311 305 303 301 303 309 311 316 319 319 320 326 330 329 324 323 322 320 319 317 317 315 314 313 311 309 310 310 311 311
309 312 310 310 310 307 304 305 306 299 302 305 306 309 309 308 312 314 312 312 320 319 315 311 307 306 307 310 311 313 314 317 316 320 325 327 327 324 322 320 319 318 317 315 312 310 309 311 308 309 312 311 307 309
308 309 310 310 309 306 304 304 309 303 302 306 308 307 309 309 311 311 310 312 315 313 313 310 309 311 312 316 320 317 310 314 315 319 323 321 322 321 319 317 313 314 312 312 311 306 307 308 311 311 309 308 307 306
308 311 310 310 308 307 307 307 305 308 313 309 309 308 308 310 308 309 310 310 310 310 309 312 316 316 326 318 320 315 312 312 318 321 322 319 319 318 316 316 314 312 311 310 309 309 306 307 308 309 309 307 308 308
310 310 309 308 306 307 307 311 309 311 311 309 309 309 308 306 307 309 313 309 308 310 314 316 319 319 324 325 323 323 330 329 327 320 314 315 317 315 313 312 311 310 310 310 309 307 308 309 308 308 307 308 306 308
308 308 309 309 303 301 302 313 306 308 303 306 309 306 307 308 310 314 310 309 310 315 316 317 323 327 326 327 320 320 327 326 324 325 320 319 317 316 314 313 313 311 309 311 310 309 309 304 305 308 308 308 307 307
307 307 305 305 305 299 307 305 308 305 306 305 304 303 306 308 314 312 306 309 314 320 318 322 321 318 323 327 322 328 328 324 323 321 320 318 315 315 314 313 312 312 312 311 310 310 310 309 304 306 307 307 306 305
299 299 301 292 306 302 301 303 305 304 302 304 304 304 307 309 308 306 305 311 317 320 321 325 322 323 321 323 326 327 324 321 314 315 317 317 316 313 313 313 313 314 314 310 309 309 310 310 309 308 307 306 306 305
291 301 295 303 303 302 303 301 302 304 305 304 304 310 312 308 302 302 308 313 318 318 318 318 320 320 321 322 319 319 319 320 317 315 316 317 314 313 311 310 309 311 315 313 312 309 309 310 309 308 307 304 299 305
294 300 306 310 307 307 306 306 308 306 304 304 307 305 305 300 301 308 317 316 317 316 319 321 321 319 322 318 317 320 320 320 318 316 317 318 317 316 314 312 310 313 315 315 313 312 310 309 309 309 309 308 308 307
304 305 301 306 307 307 303 303 305 304 307 312 310 303 302 303 305 316 318 317 316 316 316 316 316 319 318 317 318 317 316 317 317 316 317 316 317 317 318 316 317 305 316 317 314 314 312 311 311 310 309 309 308 308
304 307 305 302 304 306 307 307 308 310 313 314 308 307 309 313 317 316 315 315 318 318 314 313 314 318 317 318 318 317 316 314 313 310 310 310 311 313 317 317 316 316 315 315 299 308 313 311 312 311 310 309 309 309
302 307 303 303 303 303 309 311 310 312 315 317 318 318 318 321 323 319 317 315 314 314 316 316 316 315 313 314 313 314 316 316 315 312 310 310 311 314 315 314 314 315 315 313 312 309 297 306 305 309 307 307 307 307
308 308 304 304 304 309 312 315 315 314 314 313 316 315 314 318 317 319 318 315 314 315 314 313 313 315 313 311 311 310 310 313 313 313 311 313 312 312 312 312 313 313 312 311 312 312 310 308 308 306 306 305 306 305
305 305 303 303 305 311 313 310 311 312 312 313 313 315 315 312 309 315 317 317 314 312 306 311 312 311 313 313 313 312 299 312 312 313 313 312 313 313 313 313 312 312 311 309 309 311 310 308 307 306 306 307 306 306
306 307 307 305 305 306 310 309 308 309 309 310 310 312 312 310 308 314 318 320 317 315 314 314 314 314 315 316 314 312 311 314 305 296 298 297 297 302 310 312 312 312 310 309 309 310 309 309 307 308 308 308 308 308